Weather History for Adana Incirlik AFB, Turkey

Change the Weather History Date:

Saturday, February 1, 2014

  Actual Average Record
Temperature  
Mean Temperature 53 °F -  
Max Temperature 66 °F 61 °F 68 °F (1999)
Min Temperature 40 °F 44 °F 28 °F (1997)
Degree Days  
Heating Degree Days 12    
Growing Degree Days 3 (Base 50)    
Moisture  
Dew Point 23 °F    
Average Humidity 31    
Maximum Humidity 61    
Minimum Humidity 8    
Precipitation  
Precipitation 0.00 in - - ()
Sea Level Pressure  
Sea Level Pressure 30.13 in    
Wind  
Wind Speed 10 mph ()    
Max Wind Speed 21 mph    
Max Gust Speed -    
Visibility 6.0 miles    
Events      
Averages and records for this station are not official NWS values.
T = Trace of Precipitation, MM = Missing Value Source: Averaged Metar Reports

Daily Weather History Graph

Daily Weather History Graph

Search for Another Location

Airport:

Trip Planner

Search our weather history database for the weather conditions in past years. The results will help you decide how hot, cold, wet, or windy it might be!

Date:

Astronomy

Feb. 01, 2014 Rise Set
Actual Time 6:41 AM EET 5:03 PM EET
Civil Twilight 6:13 AM EET 5:30 PM EET
Nautical Twilight 5:42 AM EET 6:01 PM EET
Astronomical Twilight 5:12 AM EET 6:32 PM EET
Moon 7:20 AM EET (2/1) 7:09 PM EET (2/1)
Length of Visible Light 11h 16m
Length of Day
10h 22m
Waxing Crescent, 3% of the Moon is Illuminated
Feb 1
Waxing Crescent
Feb 6
First Quarter
Feb 15
Full
Feb 22
Last Quarter
Mar 1
New

Hourly Weather History & Observations

Time (EET) Temp. Windchill Dew Point Humidity Pressure Visibility Wind Dir Wind Speed Gust Speed Precip Events Conditions
12:20 AM 48.2 °F - 28.4 °F 46% 30.15 in - NNE 9.2 mph - N/A   Clear
12:50 AM 48.2 °F - 28.4 °F 46% 30.15 in - North 5.8 mph - N/A   Clear
1:20 AM 46.4 °F 42.9 °F 28.4 °F 50% 30.15 in - ENE 6.9 mph - N/A   Clear
1:50 AM 50.0 °F - 26.6 °F 40% 30.15 in - NNE 10.4 mph - N/A   Clear
2:00 AM 49 °F - 29 °F 32% 30.15 in 6 mi NNE 10.4 mph - -   Clear
2:20 AM 46.4 °F 45.2 °F 26.6 °F 46% 30.15 in - NNE 3.5 mph - N/A   Clear
2:50 AM 44.6 °F 39.7 °F 28.4 °F 53% 30.12 in - NNE 9.2 mph - N/A   Clear
3:20 AM 46.4 °F 40.7 °F 28.4 °F 50% 30.12 in - NE 12.7 mph - N/A   Clear
3:50 AM 46.4 °F 41.5 °F 26.6 °F 46% 30.12 in - NE 10.4 mph - N/A   Clear
4:20 AM 44.6 °F 39.2 °F 28.4 °F 53% 30.12 in - NE 10.4 mph - N/A   Clear
4:50 AM 42.8 °F 37.0 °F 26.6 °F 53% 30.12 in - NNE 10.4 mph - N/A   Clear
5:00 AM 43 °F - 27 °F 41% 30.14 in 6 mi NNE 10.4 mph - -  
5:20 AM 44.6 °F - 26.6 °F 49% 30.15 in - Calm Calm - N/A   Clear
5:50 AM 46.4 °F - 24.8 °F 43% 30.12 in - North 2.3 mph - N/A   Clear
6:20 AM 44.6 °F - 26.6 °F 49% 30.15 in - West 2.3 mph - N/A   Clear
6:50 AM 41.0 °F - 26.6 °F 57% 30.15 in - NNE 2.3 mph - N/A   Clear
7:20 AM 42.8 °F 39.3 °F 30.2 °F 61% 30.15 in - North 5.8 mph - N/A   Clear
7:50 AM 50.0 °F - 28.4 °F 43% 30.15 in - NE 8.1 mph - N/A   Clear
8:00 AM 49 °F - 28 °F 31% 30.17 in 6 mi NE 8.1 mph - -  
8:20 AM 53.6 °F - 26.6 °F 35% 30.15 in - NNE 6.9 mph - N/A   Clear
8:50 AM 57.2 °F - 24.8 °F 29% 30.15 in - NNE 15.0 mph - N/A   Clear
9:20 AM 57.2 °F - 23.0 °F 27% 30.15 in - NNE 16.1 mph - N/A   Clear
9:50 AM 59.0 °F - 23.0 °F 25% 30.15 in - NE 17.3 mph - N/A   Clear
10:20 AM 60.8 °F - 23.0 °F 23% 30.15 in - NE 20.7 mph - N/A   Clear
10:50 AM 62.6 °F - 23.0 °F 22% 30.12 in - NE 16.1 mph - N/A   Clear
11:00 AM 62 °F - 23 °F 12% 30.13 in 6 mi NE 16.1 mph - -  
11:20 AM 62.6 °F - 23.0 °F 22% 30.12 in - NNE 20.7 mph - N/A   Clear
11:50 AM 64.4 °F - 23.0 °F 21% 30.12 in - NE 18.4 mph - N/A   Clear
12:20 PM 64.4 °F - 23.0 °F 21% 30.12 in - NE 11.5 mph - N/A   Clear
12:50 PM 64.4 °F - 21.2 °F 19% 30.12 in - NE 11.5 mph - N/A   Clear
1:20 PM 66.2 °F - 21.2 °F 18% 30.12 in - ENE 9.2 mph - N/A   Clear
1:50 PM 66.2 °F - 19.4 °F 17% 30.12 in - NE 9.2 mph - N/A   Clear
2:00 PM 66 °F - 19 °F 8% 30.12 in 6 mi NE 9.2 mph - -  
2:20 PM 66.2 °F - 15.8 °F 14% 30.12 in - NNE 6.9 mph - N/A   Clear
2:50 PM 66.2 °F - 15.8 °F 14% 30.12 in - NE 6.9 mph - N/A   Clear
3:20 PM 66.2 °F - 19.4 °F 17% 30.12 in - ENE 6.9 mph - N/A   Clear
3:50 PM 64.4 °F - 19.4 °F 18% 30.12 in - NE 15.0 mph - N/A   Clear
4:20 PM 60.8 °F - 19.4 °F 20% 30.09 in - NE 11.5 mph - N/A   Clear
4:50 PM 59.0 °F - 19.4 °F 22% 30.09 in - NNE 13.8 mph - N/A   Clear
5:00 PM 59 °F - 20 °F 12% 30.11 in 6 mi NNE 13.8 mph - -   Clear
5:20 PM 53.6 °F - 19.4 °F 26% 30.09 in - NNE 15.0 mph - N/A   Clear
5:50 PM 55.4 °F - 19.4 °F 25% 30.09 in - NNE 12.7 mph - N/A   Clear
6:20 PM 53.6 °F - 19.4 °F 26% 30.09 in - NNE 13.8 mph - N/A   Clear
6:50 PM 53.6 °F - 21.2 °F 28% 30.09 in - NNE 13.8 mph - N/A   Clear
7:20 PM 53.6 °F - 21.2 °F 28% 30.12 in - NNE 16.1 mph - N/A   Clear
7:50 PM 51.8 °F - 21.2 °F 30% 30.12 in - NNE 17.3 mph - N/A   Clear
8:00 PM 52 °F - 21 °F 18% 30.13 in 6 mi NNE 17.3 mph - -   Clear
8:20 PM 53.6 °F - 21.2 °F 28% 30.12 in - NNE 13.8 mph - N/A   Clear
8:50 PM 53.6 °F - 21.2 °F 28% 30.12 in - NNE 20.7 mph - N/A   Clear
9:20 PM 51.8 °F - 21.2 °F 30% 30.12 in - NNE 19.6 mph - N/A   Clear
9:50 PM 51.8 °F - 19.4 °F 28% 30.12 in - NNE 16.1 mph - N/A   Clear
10:20 PM 51.8 °F - 19.4 °F 28% 30.12 in - NE 20.7 mph - N/A   Clear
10:50 PM 50.0 °F - 21.2 °F 32% 30.12 in - NE 18.4 mph - N/A   Clear
11:00 PM 51 °F - 20 °F 18% 30.12 in 6 mi NE 18.4 mph - -  
11:20 PM 50.0 °F - 21.2 °F 32% 30.12 in - NNE 17.3 mph - N/A   Clear
11:50 PM 50.0 °F - 19.4 °F 30% 30.12 in - NNE 19.6 mph - N/A   Clear